| time (UTC) | temp C | wind direction | speed KPH | gust KPH | rain 1hr cm | rain 24hr cm | rain mn cm | humidity % | barometer mb |
| 20260506224205 | 17 | 221 | 6.4 | 24.1 | 0.00 | 0.00 | 0.00 | 65 | 1007.4 |
| 20260506223705 | 17 | 202 | 6.4 | 24.1 | 0.00 | 0.00 | 0.00 | 65 | 1007.4 |
| 20260506223205 | 17 | 221 | 8.0 | 24.1 | 0.00 | 0.00 | 0.00 | 65 | 1007.2 |
| 20260506222705 | 17 | 217 | 6.4 | 22.5 | 0.00 | 0.00 | 0.00 | 64 | 1007.0 |
| 20260506222205 | 17 | 202 | 6.4 | 22.5 | 0.00 | 0.00 | 0.00 | 64 | 1007.0 |
| 20260506221706 | 17 | 220 | 4.8 | 22.5 | 0.00 | 0.00 | 0.00 | 64 | 1007.1 |
| 20260506221205 | 17 | 200 | 6.4 | 22.5 | 0.00 | 0.00 | 0.00 | 64 | 1007.1 |
| 20260506220705 | 17 | 219 | 8.0 | 22.5 | 0.00 | 0.00 | 0.00 | 63 | 1007.0 |
| 20260506215706 | 18 | 202 | 6.4 | 24.1 | 0.00 | 0.00 | 0.00 | 63 | 1007.1 |
| 20260506215205 | 18 | 266 | 6.4 | 24.1 | 0.00 | 0.00 | 0.00 | 63 | 1007.1 |
| 20260506214705 | 18 | 186 | 6.4 | 24.1 | 0.00 | 0.00 | 0.00 | 63 | 1007.1 |
| 20260506214206 | 18 | 196 | 4.8 | 22.5 | 0.00 | 0.00 | 0.00 | 63 | 1007.1 |
| 20260506213705 | 18 | 222 | 4.8 | 12.9 | 0.00 | 0.00 | 0.00 | 63 | 1007.3 |
| 20260506213206 | 18 | 192 | 3.2 | 12.9 | 0.00 | 0.00 | 0.00 | 63 | 1007.2 |
| 20260506212705 | 18 | 198 | 3.2 | 12.9 | 0.00 | 0.00 | 0.00 | 63 | 1007.1 |
| 20260506212206 | 18 | 211 | 1.6 | 12.9 | 0.00 | 0.00 | 0.00 | 63 | 1007.1 |
| 20260506211705 | 18 | 219 | 1.6 | 11.3 | 0.00 | 0.00 | 0.00 | 63 | 1007.1 |
| 20260506211206 | 17 | 223 | 1.6 | 9.7 | 0.00 | 0.00 | 0.00 | 63 | 1007.0 |
| 20260506210706 | 17 | 218 | 1.6 | 12.9 | 0.00 | 0.00 | 0.00 | 62 | 1006.9 |
| 20260506210206 | 18 | 209 | 1.6 | 12.9 | 0.00 | 0.00 | 0.00 | 62 | 1006.9 |
| 20260506205705 | 18 | 185 | 3.2 | 12.9 | 0.00 | 0.00 | 0.00 | 62 | 1006.7 |
| 20260506204705 | 18 | 213 | 3.2 | 20.9 | 0.00 | 0.00 | 0.00 | 61 | 1006.7 |
| 20260506204206 | 18 | 200 | 3.2 | 22.5 | 0.00 | 0.00 | 0.00 | 61 | 1006.7 |
| 20260506203705 | 18 | 218 | 4.8 | 22.5 | 0.00 | 0.00 | 0.00 | 61 | 1006.7 |
| 20260506202213 | 18 | 195 | 6.4 | 24.1 | 0.00 | 0.00 | 0.00 | 60 | 1006.7 |
| 20260506201705 | 18 | 217 | 8.0 | 19.3 | 0.00 | 0.00 | 0.00 | 60 | 1006.7 |
| 20260506200705 | 18 | 194 | 6.4 | 19.3 | 0.00 | 0.00 | 0.00 | 60 | 1006.7 |
| 20260506195705 | 18 | 198 | 6.4 | 20.9 | 0.00 | 0.00 | 0.00 | 60 | 1006.8 |
| 20260506195205 | 18 | 217 | 4.8 | 20.9 | 0.00 | 0.00 | 0.00 | 60 | 1006.7 |
| 20260506194706 | 18 | 211 | 4.8 | 17.7 | 0.00 | 0.00 | 0.00 | 60 | 1006.7 |
| 20260506194205 | 18 | 205 | 4.8 | 17.7 | 0.00 | 0.00 | 0.00 | 59 | 1006.7 |
| 20260506193705 | 18 | 221 | 3.2 | 16.1 | 0.00 | 0.00 | 0.00 | 59 | 1006.7 |
| 20260506193205 | 18 | 209 | 4.8 | 17.7 | 0.00 | 0.00 | 0.00 | 59 | 1006.8 |
| 20260506192705 | 18 | 208 | 4.8 | 17.7 | 0.00 | 0.00 | 0.00 | 58 | 1006.7 |
| 20260506192205 | 19 | 218 | 4.8 | 24.1 | 0.00 | 0.00 | 0.00 | 58 | 1006.6 |
| 20260506191705 | 19 | 192 | 8.0 | 24.1 | 0.00 | 0.00 | 0.00 | 57 | 1006.6 |
| 20260506191206 | 19 | 219 | 8.0 | 24.1 | 0.00 | 0.00 | 0.00 | 57 | 1006.5 |
| 20260506190729 | 19 | 202 | 6.4 | 22.5 | 0.00 | 0.00 | 0.00 | 57 | 1006.5 |
| 20260506190206 | 19 | 236 | 8.0 | 22.5 | 0.00 | 0.00 | 0.00 | 57 | 1006.3 |
| 20260506185706 | 19 | 196 | 8.0 | 22.5 | 0.00 | 0.00 | 0.00 | 56 | 1006.3 |
| 20260506184206 | 19 | 171 | 4.8 | 17.7 | 0.00 | 0.00 | 0.00 | 55 | 1006.1 |
| 20260506183705 | 19 | 209 | 6.4 | 25.7 | 0.00 | 0.00 | 0.00 | 55 | 1006.1 |
| 20260506182705 | 20 | 169 | 8.0 | 25.7 | 0.00 | 0.00 | 0.00 | 53 | 1006.0 |
| 20260506182205 | 20 | 225 | 8.0 | 24.1 | 0.00 | 0.00 | 0.00 | 53 | 1005.9 |
| 20260506181705 | 20 | 212 | 9.7 | 24.1 | 0.00 | 0.00 | 0.00 | 53 | 1005.9 |
| 20260506181205 | 20 | 215 | 9.7 | 25.7 | 0.00 | 0.00 | 0.00 | 52 | 1005.8 |
| 20260506180206 | 20 | 210 | 6.4 | 25.7 | 0.00 | 0.00 | 0.00 | 51 | 1006.0 |
| 20260506175706 | 20 | 194 | 3.2 | 22.5 | 0.00 | 0.00 | 0.00 | 51 | 1005.9 |
| 20260506175205 | 20 | 172 | 4.8 | 22.5 | 0.00 | 0.00 | 0.00 | 51 | 1005.9 |
| 20260506174705 | 20 | 263 | 6.4 | 22.5 | 0.00 | 0.00 | 0.00 | 51 | 1006.0 |
| 20260506174206 | 20 | 238 | 4.8 | 20.9 | 0.00 | 0.00 | 0.00 | 51 | 1006.0 |
| 20260506173706 | 20 | 209 | 6.4 | 27.4 | 0.00 | 0.00 | 0.00 | 51 | 1006.0 |
| 20260506173205 | 20 | 165 | 9.7 | 27.4 | 0.00 | 0.00 | 0.00 | 51 | 1006.0 |
| 20260506172706 | 20 | 177 | 11.3 | 27.4 | 0.00 | 0.00 | 0.00 | 51 | 1006.0 |
| 20260506172205 | 20 | 194 | 8.0 | 25.7 | 0.00 | 0.00 | 0.00 | 51 | 1006.0 |
| 20260506171705 | 20 | 223 | 9.7 | 25.7 | 0.00 | 0.00 | 0.00 | 51 | 1006.1 |
| 20260506171206 | 20 | 190 | 12.9 | 25.7 | 0.00 | 0.00 | 0.00 | 51 | 1006.2 |
| 20260506170705 | 20 | 175 | 9.7 | 19.3 | 0.00 | 0.00 | 0.00 | 51 | 1006.3 |
| 20260506170206 | 20 | 173 | 8.0 | 19.3 | 0.00 | 0.00 | 0.00 | 52 | 1006.3 |
| 20260506165705 | 20 | 209 | 8.0 | 19.3 | 0.00 | 0.00 | 0.00 | 52 | 1006.3 |
| 20260506165205 | 20 | 168 | 6.4 | 19.3 | 0.00 | 0.00 | 0.00 | 52 | 1006.4 |
| 20260506164705 | 21 | 153 | 6.4 | 20.9 | 0.00 | 0.00 | 0.00 | 52 | 1006.4 |
| 20260506164206 | 21 | 163 | 8.0 | 20.9 | 0.00 | 0.00 | 0.00 | 52 | 1006.3 |
| 20260506163705 | 21 | 164 | 8.0 | 19.3 | 0.00 | 0.00 | 0.00 | 52 | 1006.4 |
| 20260506163206 | 21 | 155 | 8.0 | 19.3 | 0.00 | 0.00 | 0.00 | 52 | 1006.3 |
| 20260506162705 | 21 | 213 | 6.4 | 12.9 | 0.00 | 0.00 | 0.00 | 51 | 1006.4 |
| 20260506162227 | 21 | 223 | 4.8 | 22.5 | 0.00 | 0.00 | 0.00 | 51 | 1006.4 |
| 20260506161717 | 21 | 194 | 4.8 | 27.4 | 0.00 | 0.00 | 0.00 | 51 | 1006.5 |
| 20260506161208 | 21 | 210 | 9.7 | 27.4 | 0.00 | 0.00 | 0.00 | 50 | 1006.5 |
| 20260506160705 | 21 | 209 | 11.3 | 27.4 | 0.00 | 0.00 | 0.00 | 49 | 1006.4 |
| 20260506160231 | 21 | 205 | 9.7 | 29.0 | 0.00 | 0.00 | 0.00 | 49 | 1006.5 |
| 20260506155730 | 21 | 185 | 9.7 | 32.2 | 0.00 | 0.00 | 0.00 | 49 | 1006.6 |
| 20260506155205 | 21 | 189 | 12.9 | 32.2 | 0.00 | 0.00 | 0.00 | 49 | 1006.6 |
| 20260506153705 | 22 | 168 | 12.9 | 38.6 | 0.00 | 0.00 | 0.00 | 48 | 1006.8 |
| 20260506153205 | 22 | 217 | 12.9 | 29.0 | 0.00 | 0.00 | 0.00 | 48 | 1006.7 |
| 20260506152705 | 22 | 229 | 11.3 | 30.6 | 0.00 | 0.00 | 0.00 | 49 | 1006.8 |
| 20260506152205 | 22 | 221 | 9.7 | 30.6 | 0.00 | 0.00 | 0.00 | 50 | 1006.8 |
| 20260506151706 | 21 | 190 | 9.7 | 30.6 | 0.00 | 0.00 | 0.00 | 50 | 1006.9 |
| 20260506151206 | 21 | 155 | 9.7 | 30.6 | 0.00 | 0.00 | 0.00 | 50 | 1006.8 |
| 20260506150706 | 22 | 213 | 8.0 | 30.6 | 0.00 | 0.00 | 0.00 | 48 | 1006.8 |
| 20260506150205 | 22 | 214 | 11.3 | 33.8 | 0.00 | 0.00 | 0.00 | 49 | 1007.0 |
| 20260506145705 | 22 | 149 | 14.5 | 33.8 | 0.00 | 0.00 | 0.00 | 49 | 1006.9 |
| 20260506145206 | 22 | 182 | 11.3 | 33.8 | 0.00 | 0.00 | 0.00 | 48 | 1007.0 |
| 20260506144207 | 22 | 197 | 8.0 | 24.1 | 0.00 | 0.00 | 0.00 | 49 | 1007.0 |
| 20260506143705 | 22 | 201 | 9.7 | 24.1 | 0.00 | 0.00 | 0.00 | 49 | 1007.0 |
| 20260506142705 | 23 | 235 | 11.3 | 29.0 | 0.00 | 0.00 | 0.00 | 47 | 1007.1 |
| 20260506142205 | 23 | 205 | 14.5 | 29.0 | 0.00 | 0.00 | 0.00 | 47 | 1007.1 |
| 20260506141705 | 22 | 212 | 16.1 | 29.0 | 0.00 | 0.00 | 0.00 | 48 | 1007.1 |
| 20260506141206 | 22 | 223 | 11.3 | 20.9 | 0.00 | 0.00 | 0.00 | 48 | 1007.1 |
| 20260506140705 | 22 | 203 | 8.0 | 20.9 | 0.00 | 0.00 | 0.00 | 48 | 1007.1 |
| 20260506140222 | 23 | 238 | 6.4 | 22.5 | 0.00 | 0.00 | 0.00 | 47 | 1007.0 |
| 20260506135706 | 23 | 224 | 8.0 | 22.5 | 0.00 | 0.00 | 0.00 | 47 | 1007.1 |
| 20260506135205 | 22 | 227 | 8.0 | 22.5 | 0.00 | 0.00 | 0.00 | 49 | 1007.0 |
| 20260506134705 | 22 | 227 | 8.0 | 17.7 | 0.00 | 0.00 | 0.00 | 49 | 1007.1 |
| 20260506134206 | 22 | 225 | 9.7 | 17.7 | 0.00 | 0.00 | 0.00 | 48 | 1007.1 |
| 20260506133205 | 22 | 202 | 8.0 | 22.5 | 0.00 | 0.00 | 0.00 | 48 | 1007.1 |
| 20260506132705 | 22 | 225 | 8.0 | 27.4 | 0.00 | 0.00 | 0.00 | 48 | 1007.0 |
| 20260506131721 | 23 | 186 | 9.7 | 27.4 | 0.00 | 0.00 | 0.00 | 47 | 1007.0 |
| 20260506131205 | 22 | 218 | 6.4 | 19.3 | 0.00 | 0.00 | 0.00 | 46 | 1007.0 |
| 20260506130205 | 23 | 220 | 8.0 | 19.3 | 0.00 | 0.00 | 0.00 | 46 | 1007.0 |
| 20260506125705 | 23 | 227 | 8.0 | 16.1 | 0.00 | 0.00 | 0.00 | 46 | 1007.0 |
| 20260506125205 | 23 | 202 | 6.4 | 16.1 | 0.00 | 0.00 | 0.00 | 44 | 1007.1 |
| 20260506124705 | 24 | 204 | 4.8 | 14.5 | 0.00 | 0.00 | 0.00 | 44 | 1007.0 |
| 20260506124205 | 24 | 227 | 4.8 | 14.5 | 0.00 | 0.00 | 0.00 | 45 | 1007.1 |
| 20260506123705 | 24 | 169 | 4.8 | 14.5 | 0.00 | 0.00 | 0.00 | 42 | 1007.0 |
| 20260506123206 | 25 | 214 | 3.2 | 19.3 | 0.00 | 0.00 | 0.00 | 43 | 1007.0 |
| 20260506122705 | 24 | 262 | 4.8 | 19.3 | 0.00 | 0.00 | 0.00 | 43 | 1007.0 |
| 20260506122205 | 25 | 205 | 4.8 | 17.7 | 0.00 | 0.00 | 0.00 | 43 | 1007.2 |
| 20260506121706 | 24 | 265 | 4.8 | 16.1 | 0.00 | 0.00 | 0.00 | 43 | 1007.2 |
| 20260506120205 | 23 | 198 | 4.8 | 14.5 | 0.00 | 0.00 | 0.00 | 44 | 1007.2 |
| 20260506115705 | 23 | 167 | 4.8 | 14.5 | 0.00 | 0.00 | 0.00 | 46 | 1007.2 |
| 20260506115206 | 23 | 246 | 4.8 | 16.1 | 0.00 | 0.00 | 0.00 | 46 | 1007.3 |
| 20260506114706 | 23 | 246 | 4.8 | 16.1 | 0.00 | 0.00 | 0.00 | 46 | 1007.2 |
| 20260506114206 | 23 | 215 | 4.8 | 16.1 | 0.00 | 0.00 | 0.00 | 45 | 1007.2 |
| 20260506113706 | 23 | 224 | 4.8 | 16.1 | 0.00 | 0.00 | 0.00 | 45 | 1007.3 |
| 20260506113206 | 23 | 205 | 4.8 | 12.9 | 0.00 | 0.00 | 0.00 | 44 | 1007.2 |
| 20260506112705 | 23 | 249 | 3.2 | 19.3 | 0.00 | 0.00 | 0.00 | 45 | 1007.3 |
| 20260506112205 | 24 | 223 | 4.8 | 19.3 | 0.00 | 0.00 | 0.00 | 45 | 1007.3 |
| 20260506111705 | 24 | 275 | 6.4 | 17.7 | 0.00 | 0.00 | 0.00 | 45 | 1007.4 |
| 20260506111205 | 23 | 225 | 6.4 | 16.1 | 0.00 | 0.00 | 0.00 | 45 | 1007.4 |
| 20260506110731 | 24 | 216 | 4.8 | 17.7 | 0.00 | 0.00 | 0.00 | 45 | 1007.5 |
| 20260506110206 | 24 | 257 | 3.2 | 17.7 | 0.00 | 0.00 | 0.00 | 45 | 1007.4 |
| 20260506105705 | 24 | 282 | 3.2 | 17.7 | 0.00 | 0.00 | 0.00 | 46 | 1007.4 |
| 20260506105205 | 24 | 214 | 3.2 | 12.9 | 0.00 | 0.00 | 0.00 | 46 | 1007.4 |
| 20260506103706 | 24 | 234 | 3.2 | 9.7 | 0.00 | 0.00 | 0.00 | 45 | 1007.6 |
| 20260506103205 | 24 | 238 | 3.2 | 11.3 | 0.00 | 0.00 | 0.00 | 45 | 1007.5 |
| 20260506102705 | 24 | 252 | 1.6 | 17.7 | 0.00 | 0.00 | 0.00 | 45 | 1007.5 |
| 20260506102206 | 23 | 236 | 1.6 | 17.7 | 0.00 | 0.00 | 0.00 | 45 | 1007.5 |
| 20260506101205 | 23 | 191 | 3.2 | 3.2 | 0.00 | 0.00 | 0.00 | 47 | 1007.6 |
| 20260506095706 | 23 | 233 | 1.6 | 11.3 | 0.00 | 0.00 | 0.00 | 47 | 1007.9 |
| 20260506095205 | 23 | 221 | 1.6 | 11.3 | 0.00 | 0.00 | 0.00 | 47 | 1007.9 |
| 20260506094706 | 23 | 223 | 3.2 | 9.7 | 0.00 | 0.00 | 0.00 | 48 | 1007.9 |
| 20260506094205 | 23 | 279 | 3.2 | 9.7 | 0.00 | 0.00 | 0.00 | 49 | 1007.7 |
| 20260506093206 | 22 | 196 | 1.6 | 11.3 | 0.00 | 0.00 | 0.00 | 51 | 1007.9 |
| 20260506092705 | 22 | 226 | 1.6 | 11.3 | 0.00 | 0.00 | 0.00 | 49 | 1007.9 |
| 20260506092205 | 22 | 242 | 0.0 | 9.7 | 0.00 | 0.00 | 0.00 | 50 | 1007.9 |
| 20260506091205 | 21 | 217 | 3.2 | 16.1 | 0.00 | 0.00 | 0.00 | 52 | 1007.9 |
| 20260506090705 | 21 | 204 | 3.2 | 16.1 | 0.00 | 0.00 | 0.00 | 51 | 1007.7 |
| 20260506090205 | 21 | 194 | 3.2 | 11.3 | 0.00 | 0.00 | 0.00 | 51 | 1007.7 |
| 20260506085705 | 21 | 186 | 1.6 | 14.5 | 0.00 | 0.00 | 0.00 | 52 | 1007.7 |
| 20260506085206 | 21 | 221 | 3.2 | 14.5 | 0.00 | 0.00 | 0.00 | 53 | 1007.9 |
| 20260506084706 | 21 | 225 | 1.6 | 14.5 | 0.00 | 0.00 | 0.00 | 53 | 1007.9 |
| 20260506084206 | 21 | 215 | 1.6 | 11.3 | 0.00 | 0.00 | 0.00 | 54 | 1007.9 |
| 20260506083205 | 21 | 282 | 1.6 | 14.5 | 0.00 | 0.00 | 0.00 | 54 | 1008.0 |
| 20260506082706 | 20 | 236 | 3.2 | 14.5 | 0.00 | 0.00 | 0.00 | 54 | 1008.0 |
| 20260506082205 | 20 | 252 | 3.2 | 12.9 | 0.00 | 0.00 | 0.00 | 54 | 1007.9 |
| 20260506081205 | 21 | 192 | 3.2 | 11.3 | 0.00 | 0.00 | 0.00 | 55 | 1008.0 |
| 20260506080706 | 20 | 249 | 4.8 | 11.3 | 0.00 | 0.00 | 0.00 | 54 | 1008.1 |
| 20260506080205 | 20 | 294 | 3.2 | 11.3 | 0.00 | 0.00 | 0.00 | 55 | 1008.0 |
| 20260506072705 | 20 | 217 | 1.6 | 9.7 | 0.00 | 0.00 | 0.00 | 57 | 1008.0 |
| 20260506072205 | 19 | 187 | 1.6 | 9.7 | 0.00 | 0.00 | 0.00 | 57 | 1008.1 |
| 20260506071705 | 19 | 217 | 1.6 | 6.4 | 0.00 | 0.00 | 0.00 | 59 | 1008.1 |
| 20260506071205 | 19 | 296 | 1.6 | 8.0 | 0.00 | 0.00 | 0.00 | 59 | 1008.1 |
| 20260506070705 | 18 | 295 | 1.6 | 8.0 | 0.00 | 0.00 | 0.00 | 59 | 1008.0 |
| 20260506070205 | 18 | 299 | 1.6 | 8.0 | 0.00 | 0.00 | 0.00 | 59 | 1008.0 |
| 20260506062205 | 17 | 54 | 0.0 | 9.7 | 0.00 | 0.00 | 0.00 | 64 | 1008.0 |
| 20260506061223 | 17 | 75 | 1.6 | 9.7 | 0.00 | 0.00 | 0.00 | 64 | 1007.9 |
| 20260506060726 | 17 | 113 | 1.6 | 6.4 | 0.00 | 0.00 | 0.00 | 64 | 1007.9 |
| 20260506051205 | 12 | 259 | 0.0 | 1.6 | 0.00 | 0.00 | 0.00 | 77 | 1007.9 |
| 20260506050705 | 12 | 259 | 0.0 | 0.0 | 0.00 | 0.00 | 0.00 | 77 | 1007.7 |
| 20260506050205 | 12 | 259 | 0.0 | 0.0 | 0.00 | 0.00 | 0.00 | 77 | 1007.7 |
| 20260506044705 | 12 | 259 | 0.0 | 1.6 | 0.00 | 0.00 | 0.00 | 78 | 1007.7 |
| 20260506044205 | 12 | 259 | 0.0 | 1.6 | 0.00 | 0.00 | 0.00 | 77 | 1007.7 |
| 20260506043705 | 12 | 259 | 0.0 | 0.0 | 0.00 | 0.00 | 0.00 | 77 | 1007.6 |
| 20260506043205 | 12 | 260 | 0.0 | 0.0 | 0.00 | 0.00 | 0.00 | 77 | 1007.6 |
| 20260506042705 | 12 | 260 | 0.0 | 0.0 | 0.00 | 0.00 | 0.00 | 76 | 1007.5 |
| 20260506042206 | 12 | 260 | 0.0 | 0.0 | 0.00 | 0.00 | 0.00 | 76 | 1007.5 |
| 20260506040706 | 12 | 228 | 0.0 | 3.2 | 0.00 | 0.00 | 0.00 | 75 | 1007.3 |
| 20260506040205 | 12 | 228 | 0.0 | 3.2 | 0.00 | 0.00 | 0.00 | 75 | 1007.2 |
| 20260506035705 | 12 | 228 | 0.0 | 9.7 | 0.00 | 0.00 | 0.00 | 74 | 1007.3 |
| 20260506035205 | 12 | 227 | 0.0 | 9.7 | 0.00 | 0.00 | 0.00 | 74 | 1007.1 |
| 20260506034706 | 12 | 227 | 0.0 | 9.7 | 0.00 | 0.00 | 0.00 | 74 | 1007.1 |
| 20260506034205 | 12 | 232 | 0.0 | 4.8 | 0.00 | 0.00 | 0.00 | 74 | 1007.1 |
| 20260506033705 | 12 | 221 | 0.0 | 4.8 | 0.00 | 0.00 | 0.00 | 73 | 1007.1 |
| 20260506033205 | 13 | 244 | 0.0 | 3.2 | 0.00 | 0.00 | 0.00 | 73 | 1007.2 |
| 20260506032705 | 13 | 259 | 0.0 | 3.2 | 0.00 | 0.00 | 0.00 | 72 | 1007.2 |
| 20260506032206 | 13 | 271 | 0.0 | 6.4 | 0.00 | 0.00 | 0.00 | 72 | 1007.2 |
| 20260506031705 | 13 | 232 | 0.0 | 19.3 | 0.00 | 0.00 | 0.00 | 72 | 1007.2 |
| 20260506031205 | 13 | 229 | 1.6 | 19.3 | 0.00 | 0.00 | 0.00 | 71 | 1007.1 |
| 20260506030706 | 13 | 238 | 1.6 | 19.3 | 0.00 | 0.00 | 0.00 | 71 | 1007.1 |
| 20260506030205 | 13 | 250 | 1.6 | 9.7 | 0.00 | 0.00 | 0.00 | 70 | 1007.1 |
| 20260506025706 | 13 | 265 | 1.6 | 9.7 | 0.00 | 0.00 | 0.00 | 70 | 1007.0 |
| 20260506025205 | 13 | 233 | 1.6 | 9.7 | 0.00 | 0.00 | 0.00 | 70 | 1007.0 |
| 20260506024705 | 13 | 279 | 1.6 | 8.0 | 0.00 | 0.00 | 0.00 | 69 | 1006.9 |
| 20260506024206 | 13 | 259 | 1.6 | 8.0 | 0.00 | 0.00 | 0.00 | 69 | 1006.8 |
| 20260506023705 | 14 | 261 | 1.6 | 6.4 | 0.00 | 0.00 | 0.00 | 69 | 1006.8 |
| 20260506023205 | 14 | 279 | 1.6 | 11.3 | 0.00 | 0.00 | 0.00 | 68 | 1006.8 |
| 20260506021205 | 14 | 216 | 4.8 | 17.7 | 0.00 | 0.00 | 0.00 | 68 | 1006.9 |
| 20260506020705 | 14 | 219 | 4.8 | 17.7 | 0.00 | 0.00 | 0.00 | 68 | 1006.8 |
| 20260506015706 | 14 | 217 | 1.6 | 11.3 | 0.00 | 0.00 | 0.00 | 67 | 1007.0 |
| 20260506015205 | 14 | 209 | 1.6 | 14.5 | 0.00 | 0.00 | 0.00 | 67 | 1007.0 |
| 20260506014705 | 15 | 218 | 3.2 | 14.5 | 0.00 | 0.00 | 0.00 | 67 | 1007.0 |
| 20260506014205 | 15 | 213 | 4.8 | 14.5 | 0.00 | 0.00 | 0.00 | 66 | 1006.9 |
| 20260506013705 | 15 | 220 | 4.8 | 14.5 | 0.00 | 0.00 | 0.00 | 66 | 1006.8 |
| 20260506013205 | 15 | 192 | 3.2 | 17.7 | 0.00 | 0.00 | 0.00 | 66 | 1006.9 |
| 20260506011706 | 15 | 244 | 4.8 | 19.3 | 0.00 | 0.00 | 0.00 | 65 | 1006.9 |
| 20260506011206 | 15 | 205 | 3.2 | 12.9 | 0.00 | 0.00 | 0.00 | 65 | 1006.9 |
| 20260506010205 | 15 | 232 | 1.6 | 9.7 | 0.00 | 0.00 | 0.00 | 64 | 1006.8 |
| 20260506005705 | 15 | 220 | 1.6 | 11.3 | 0.00 | 0.00 | 0.00 | 64 | 1006.8 |
| 20260506005206 | 15 | 221 | 3.2 | 17.7 | 0.00 | 0.00 | 0.00 | 63 | 1006.7 |
| 20260506004206 | 15 | 219 | 4.8 | 19.3 | 0.00 | 0.00 | 0.00 | 63 | 1006.7 |
| 20260506003705 | 15 | 198 | 6.4 | 19.3 | 0.00 | 0.00 | 0.00 | 63 | 1006.7 |
| 20260506003205 | 15 | 229 | 6.4 | 19.3 | 0.00 | 0.00 | 0.00 | 62 | 1006.8 |
| 20260506002705 | 15 | 216 | 6.4 | 19.3 | 0.00 | 0.00 | 0.00 | 62 | 1006.8 |
| 20260506002205 | 15 | 215 | 3.2 | 14.5 | 0.00 | 0.00 | 0.00 | 61 | 1006.8 |
| 20260506001705 | 15 | 234 | 1.6 | 4.8 | 0.00 | 0.00 | 0.00 | 60 | 1006.9 |
| 20260506000731 | 16 | 226 | 0.0 | 6.4 | 0.00 | 0.00 | 0.00 | 59 | 1007.0 |
| 20260506000205 | 16 | 214 | 0.0 | 22.5 | 0.00 | 0.00 | 0.00 | 59 | 1007.0 |
| 20260505235705 | 16 | 258 | 1.6 | 22.5 | 0.00 | 0.00 | 0.00 | 58 | 1007.0 |
| 20260505235205 | 16 | 238 | 4.8 | 22.5 | 0.00 | 0.00 | 0.00 | 58 | 1007.0 |
| 20260505234706 | 16 | 220 | 6.4 | 19.3 | 0.00 | 0.00 | 0.00 | 58 | 1006.9 |
| 20260505234206 | 16 | 192 | 4.8 | 20.9 | 0.00 | 0.00 | 0.00 | 58 | 1006.9 |
| 20260505233705 | 16 | 217 | 6.4 | 20.9 | 0.00 | 0.00 | 0.00 | 58 | 1006.8 |
| 20260505233205 | 16 | 222 | 6.4 | 20.9 | 0.00 | 0.00 | 0.00 | 58 | 1006.8 |
| 20260505232706 | 16 | 210 | 6.4 | 17.7 | 0.00 | 0.00 | 0.00 | 57 | 1006.8 |
| 20260505232205 | 16 | 212 | 6.4 | 16.1 | 0.00 | 0.00 | 0.00 | 57 | 1006.9 |
| 20260505231705 | 16 | 173 | 3.2 | 9.7 | 0.00 | 0.00 | 0.00 | 57 | 1007.0 |
| 20260505231206 | 16 | 201 | 1.6 | 9.7 | 0.00 | 0.00 | 0.00 | 57 | 1007.0 |
| 20260505230706 | 16 | 211 | 3.2 | 11.3 | 0.00 | 0.00 | 0.00 | 56 | 1007.1 |
| 20260505230205 | 16 | 232 | 1.6 | 11.3 | 0.00 | 0.00 | 0.00 | 56 | 1007.1 |
| 20260505225705 | 16 | 218 | 1.6 | 11.3 | 0.00 | 0.00 | 0.00 | 55 | 1007.0 |
| 20260505225205 | 16 | 231 | 0.0 | 9.7 | 0.00 | 0.00 | 0.00 | 54 | 1006.9 |
| 20260505224705 | 16 | 232 | 0.0 | 17.7 | 0.00 | 0.00 | 0.00 | 53 | 1007.0 |